Current weather by "City, St" or "zip code"  
 
Advertise Here

Current Conditions: Muskogee-Davis Regional Airport, OK

Overcast


53.0 F

Last Updated on Jan 25 2021, 2:53 am CST
Humidity: 96%
Wind Speed: E 6.9 mph
Barometer 29.57 in
Dewpoint: 52.0 F
Visibility: 10.00 mi
Precip: 00.01 in
Heat Index: NA
Wind Chill: 51 F
Current conditions at:

Muskogee-Davis Regional Airport, OK (KMKO)

Lat: 35.65694 Lon: 95.35972

Local Radar Image active severe weather and emergency alerts image image weather storm and storm spotter reports image weather observation monitoring service image
Local
Radar
Active
Alerts
Storm Reports Obs
Monitoring

Sign-up For Email & Text Message Weather Alert Notification Services


Advertise Here

Observation History for Muskogee-Davis Regional Airport, OK


Time Wind
(mph)
Vis
(mi)
Weather Precip (in) Temperature (F) Relative
Humidity
Wind
Chill
(F)
Heat
Index
(F)
Pressure
Air Dwpt altimeter
(in)
sea level
(mb)
Rmks
2:53 am CST E 6.9 10.00 Overcast 00.01 53.0 52.0 96% 51 NA 29.57 1001.2
1:53 am CST E 4.6 4.00 Light Rain Fog/Mist -- 52.0 52.0 100% 51 NA 29.65 1004.0
12:53 am CST 2.00 Thunderstorm Fog/Mist 00.34 52.0 51.1 97% NA NA 29.70 1005.5
11:53 pm CST E 9.2 8.00 Thunderstorm in Vicinity Light Rain -- 53.0 51.1 93% 50 NA 29.73 1006.5
10:53 pm CST E 10.4 6.00 Rain Fog/Mist 00.03 53.0 51.1 93% 50 NA 29.75 1007.4
9:53 pm CST E 10.4 10.00 Overcast -- 54.0 48.9 83% 51 NA 29.77 1008.1
8:53 pm CST E 4.6 10.00 Overcast Trace 53.0 48.0 83% 52 NA 29.82 1009.7
7:53 pm CST SE 6.9 10.00 Overcast -- 53.0 48.0 83% 51 NA 29.84 1010.5
6:53 pm CST E 4.6 10.00 Overcast -- 52.0 46.9 83% 51 NA 29.88 1011.8
5:53 pm CST E 3.5 10.00 Mostly Cloudy -- 53.0 46.9 80% NA NA 29.87 1011.5
4:53 pm CST E 4.6 10.00 Overcast -- 55.0 46.9 74% 54 NA 29.91 1012.7
3:53 pm CST NE 3.5 10.00 Overcast -- 55.0 46.9 74% NA NA 29.93 1013.4
2:53 pm CST N 5.8 10.00 Overcast -- 56.0 46.9 72% 55 NA 29.93 1013.5
1:53 pm CST N 0.0 10.00 Overcast -- 54.0 46.0 75% NA NA 29.94 1013.9
12:53 pm CST E 4.6 10.00 Overcast -- 50.0 45.0 83% 48 NA 29.98 1015.2
11:53 am CST SE 5.8 10.00 Overcast -- 48.0 43.0 83% 45 NA 30.02 1016.5
10:53 am CST SE 5.8 10.00 Overcast -- 45.0 42.1 90% 42 NA 30.04 1017.2
9:53 am CST SE 4.6 9.00 Overcast -- 43.0 41.0 93% 40 NA 30.04 1017.3
8:53 am CST S 4.6 7.00 Overcast -- 42.0 39.9 92% 39 NA 30.02 1016.7
7:53 am CST SE 6.9 3.00 Fog/Mist -- 41.0 39.0 93% 36 NA 30.01 1016.3
6:53 am CST SE 4.6 9.00 Overcast -- 41.0 37.9 89% 38 NA 30.00 1016.1
5:53 am CST SE 5.8 10.00 Overcast -- 40.0 39.0 97% 36 NA 29.98 1015.2
4:53 am CST SE 6.9 9.00 Overcast -- 40.0 37.9 93% 35 NA 29.98 1015.2
3:53 am CST SE 10.4 5.00 Fog/Mist -- 39.0 37.9 96% 32 NA 29.98 1015.3

Regional Weather Observation


Tahlequah, Tahlequah Municipal Airport, OK (KTQH)

Overcast
50.0 F

Okmulgee, Okmulgee Municipal Airport, OK (KOKM)

Thunderstorm Rain
51.0 F

Tulsa - Jones Jr. Airport, OK (KRVS)

Light Rain
50.0 F

Tulsa, Tulsa International Airport, OK (KTUL)

Rain Fog/Mist
49.0 F

Mid-America Industrial Airport, OK (KH71)

Thunderstorm in Vicinity Fog/Mist
50.0 F

Claremore, Claremore Regional Airport, OK (KGCM)

Fog/Mist
46.0 F